Weather History for KSQL - May, 2013

Change the Weather History Date:

Friday, May 3, 2013

  Actual Average Record
Temperature  
Mean Temperature 73 °F -  
Max Temperature 87 °F 74 °F 89 °F (1966)
Min Temperature 59 °F 48 °F 40 °F (1949)
Cooling Degree Days 8    
Growing Degree Days 23 (Base 50)    
Moisture  
Dew Point 37 °F    
Average Humidity 35    
Maximum Humidity 52    
Minimum Humidity 12    
Precipitation  
Precipitation 0.00 in - - ()
Sea Level Pressure  
Sea Level Pressure 29.97 in    
Wind  
Wind Speed 3 mph (WNW)    
Max Wind Speed 13 mph    
Max Gust Speed -    
Visibility 10 miles    
Events      
Averages and records for this station are not official NWS values.
T = Trace of Precipitation, MM = Missing Value Source: NWS Daily Summary

Daily Weather History Graph

Daily Weather History Graph

Search for Another Location

Airport or City:

Trip Planner

Search our weather history database for the weather conditions in past years. The results will help you decide how hot, cold, wet, or windy it might be!

Date:

Astronomy

May. 03, 2013 Rise Set
Actual Time 6:11 AM PDT 8:01 PM PDT
Civil Twilight 5:42 AM PDT 8:29 PM PDT
Nautical Twilight 5:08 AM PDT 9:03 PM PDT
Astronomical Twilight 4:31 AM PDT 9:40 PM PDT
Moon 2:31 AM PDT (5/3) 2:08 PM PDT (5/3)
Length of Visible Light 14h 46m
Length of Day
13h 50m
Waning Crescent, 36% of the Moon is Illuminated
May 3
Waning Crescent
May 9
New
May 17
First Quarter
May 24
Full
May 31
Last Quarter

Hourly Weather History & Observations

Time (PDT) Temp. Dew Point Humidity Pressure Visibility Wind Dir Wind Speed Gust Speed Precip Events Conditions
12:15 AM 66.2 °F 28.4 °F 24% 30.10 in 10.0 mi SSW 3.5 mph - N/A   Clear
12:35 AM 66.2 °F 32.0 °F 28% 30.10 in 10.0 mi SE 3.5 mph - N/A   Clear
12:55 AM 64.4 °F 35.6 °F 34% 30.10 in 10.0 mi SSE 4.6 mph - N/A   Clear
1:15 AM 64.4 °F 32.0 °F 30% 30.10 in 10.0 mi Calm Calm - N/A   Clear
1:35 AM 64.4 °F 30.2 °F 28% 30.09 in 10.0 mi SSW 3.5 mph - N/A   Clear
1:55 AM 64.4 °F 32.0 °F 30% 30.08 in 10.0 mi Calm Calm - N/A   Clear
2:15 AM 64.4 °F 32.0 °F 30% 30.07 in 10.0 mi Calm Calm - N/A   Clear
2:35 AM 62.6 °F 33.8 °F 34% 30.07 in 10.0 mi Calm Calm - N/A   Partly Cloudy
2:55 AM 62.6 °F 32.0 °F 32% 30.06 in 10.0 mi Calm Calm - N/A   Partly Cloudy
3:15 AM 62.6 °F 32.0 °F 32% 30.05 in 10.0 mi Calm Calm - N/A   Clear
3:35 AM 62.6 °F 32.0 °F 32% 30.05 in 10.0 mi Calm Calm - N/A   Clear
3:55 AM 60.8 °F 32.0 °F 34% 30.05 in 10.0 mi Calm Calm - N/A   Clear
4:15 AM 60.8 °F 32.0 °F 34% 30.05 in 10.0 mi Calm Calm - N/A   Clear
4:35 AM 60.8 °F 32.0 °F 34% 30.04 in 10.0 mi Calm Calm - N/A   Clear
4:55 AM 59.0 °F 32.0 °F 36% 30.04 in 10.0 mi Calm Calm - N/A   Clear
5:15 AM 59.0 °F 30.2 °F 34% 30.04 in 10.0 mi Calm Calm - N/A   Clear
5:35 AM 59.0 °F 35.6 °F 42% 30.03 in 10.0 mi Calm Calm - N/A   Clear
5:55 AM 59.0 °F 32.0 °F 36% 30.03 in 10.0 mi Calm Calm - N/A   Clear
6:15 AM 59.0 °F 32.0 °F 36% 30.03 in 10.0 mi Calm Calm - N/A   Clear
6:35 AM 59.0 °F 33.8 °F 39% 30.03 in 10.0 mi NW 8.1 mph - N/A   Clear
6:47 AM 59.0 °F 32.0 °F 36% 30.03 in 10.0 mi WNW 5.8 mph - N/A   Clear
6:55 AM 59.0 °F 32.0 °F 36% 30.03 in 10.0 mi NW 4.6 mph - N/A   Clear
7:47 AM 64.4 °F 39.2 °F 40% 30.03 in 10.0 mi NW 3.5 mph - N/A   Clear
8:51 AM 68.0 °F 46.4 °F 46% 30.01 in 10.0 mi NW 3.5 mph - N/A   Clear
9:50 AM 69.8 °F 50.0 °F 49% 30.00 in 10.0 mi North 4.6 mph - N/A   Clear
10:47 AM 73.4 °F 50.0 °F 44% 29.99 in 10.0 mi Variable 3.5 mph - N/A   Clear
11:47 AM 75.2 °F 44.6 °F 34% 29.97 in 10.0 mi NNE 8.1 mph - N/A   Clear
12:47 PM 80.6 °F 46.4 °F 30% 29.95 in 10.0 mi North 8.1 mph - N/A   Clear
1:55 PM 86.0 °F 28.4 °F 12% 29.92 in 10.0 mi NNW 9.2 mph - N/A   Clear
2:51 PM 87.8 °F 35.6 °F 16% 29.90 in 10.0 mi NNW 9.2 mph - N/A   Clear
3:50 PM 87.8 °F 33.8 °F 15% 29.87 in 10.0 mi WSW 6.9 mph - N/A   Clear
4:51 PM 84.2 °F 28.4 °F 13% 29.85 in 10.0 mi WSW 12.7 mph - N/A   Clear
5:48 PM 82.4 °F 32.0 °F 16% 29.85 in 10.0 mi West 12.7 mph - N/A   Clear
6:55 PM 78.8 °F 32.0 °F 18% 29.83 in 10.0 mi WNW 12.7 mph - N/A   Clear
7:55 PM 73.4 °F 35.6 °F 25% 29.84 in 10.0 mi NW 6.9 mph - N/A   Clear
8:50 PM 68.0 °F 48.2 °F 49% 29.84 in 10.0 mi North 4.6 mph - N/A   Clear
9:15 PM 68.0 °F 48.2 °F 49% 29.85 in 10.0 mi NNE 4.6 mph - N/A   Clear
9:35 PM 66.2 °F 46.4 °F 49% 29.85 in 10.0 mi SE 3.5 mph - N/A   Clear
9:55 PM 68.0 °F 48.2 °F 49% 29.85 in 10.0 mi Calm Calm - N/A   Clear
10:15 PM 68.0 °F 48.2 °F 49% 29.85 in 10.0 mi SSE 3.5 mph - N/A   Clear
10:35 PM 68.0 °F 46.4 °F 46% 29.84 in 10.0 mi Calm Calm - N/A   Clear
10:55 PM 68.0 °F 48.2 °F 49% 29.84 in 10.0 mi SSE 3.5 mph - N/A   Clear
11:15 PM 68.0 °F 50.0 °F 52% 29.83 in 10.0 mi Calm Calm - N/A   Clear
11:35 PM 66.2 °F 39.2 °F 37% 29.82 in 10.0 mi Calm Calm - N/A   Clear
11:55 PM 66.2 °F 41.0 °F 40% 29.82 in 10.0 mi Calm Calm - N/A   Clear